OneWeb SL0366

operational
NORAD ID: 49292 Int'l Des: 2021-090 Owner: ONEWEBN Country: UK Constellation: oneweb
LEOCIRCULARPOLARONEWEB_TYPE

About OneWeb SL0366

Description loading...

Live Position

Loading 3D Globe...

Upcoming Passes

Altitude History

Altitude vs Time

uPlot chart will show altitude changes over time

Two-Line Element Set

1 49292U 21090P 26035.30588300 .00000266 00000-0 68329-3 0 9996
2 49292 87.9022 316.2076 0001747 77.8277 282.3049 13.14503940210100
Epoch: Feb 4, 2026 • Age: 16 hours

Current Status

Altitude 1210.0 km
Velocity 7.25 km/s
Sub-Earth Point -8.23°S, 175.49°W
Launch Date Oct 14, 2021
Age 4.3 years
Type internet

Technical Details

Classification Payload
Mass 148.00 kg
Dry Mass 140.00 kg
Total Mass 148.00 kg
Length 1.30 m
Diameter 1.00 m
Span 5.00 m
Shape Trapezoid+2 pan
Manufacturer ONEWUS
Bus Type ARROW
Phase Status In Orbit
Owner/State ONEWEBN/UK

Large Constellations

Loading constellations...